Tracking 19176 objects as of 27-May-2018
HD Live streaming from Space Station
objects crossing your sky now

PSLV R/B

Track PSLV R/B now!
10-day predictions


NORAD ID: 28651
Int'l Code: 2005-017C
Perigee: 604.4 km
Apogee: 710.4 km
Inclination: 97.9 °
Period: 97.7 minutes
Semi major axis: 7028 km
RCS: 6.3542 m2 (large)
Launch date: May 5, 2005
Source: India (IND)
Launch site: SRIHARIKOTA (SRI)

Note: This is a ROCKET BODY
aabbcc
Your satellite tracking list
Your tracking list is empty




NASA's NSSDC Master Catalog

Two Line Element Set (TLE):
1 28651U 05017C   18146.79476459  .00000043  00000-0  14177-4 0  9997
2 28651  97.9277  70.9399 0075374  56.6034 304.2355 14.73391010701168
Source of the keplerian elements: AFSPC